Preview of NWS' New Version of Forecast
This preview is not operational and should not be used for support decisions.

Regional Weather Roundup (RWR)

Issued by National Weather Service (NWS)

                            
000
ASUS42 KTBW 211618
RWRFL 
FLORIDA REGIONAL WEATHER ROUNDUP
NATIONAL WEATHER SERVICE TAMPA BAY RUSKIN FL
1200 PM EDT SAT SEP 21 2019

NOTE: "FAIR" INDICATES FEW OR NO CLOUDS BELOW 12,000 FEET WITH NO
SIGNIFICANT WEATHER AND/OR OBSTRUCTIONS TO VISIBILITY.

FLZ001>010-012>015-112-114-115-211700-
PANHANDLE FLORIDA
  
CITY           SKY/WX    TMP DP  RH WIND       PRES   REMARKS
PENSACOLA      FAIR      84  70  62 E13G20    30.21S                  
PENSACOLA NAS  PTSUNNY   84  72  67 E17G25    30.20S                  
MILTON NAS     FAIR      85  65  51 E8G18     30.22F                  
CRESTVIEW      FAIR      87  64  46 E8        30.24F                  
DUKE FIELD     FAIR      85  65  50 E14       30.22F                  
VALPARAISO     FAIR      84  65  52 E14       30.22S                  
MARY ESTHER    FAIR      84  66  54 E12G24    30.20F                  
TRI COUNTY     FAIR      83  64  52 E10       30.24                   
PANAMA CITY    FAIR      85  65  51 E10G18    30.21F                  
TYNDALL AFB    FAIR      85  65  51 E16       30.20F                  
APALACHICOLA   FAIR      84  67  56 E15G24    30.21F                  

STATION/POSITION SKY/WX   TEMP    WIND        PRES    WAVE   SWELL
                          AIR SEA DIR/SP/G            HT/PER HT/PER
                          (F)     (DEG/KT/KT) (MB)    (FT/S) (FT/S)
30.1N   87.6W              81 84  100/ 19/ 23 1022.5R   7/ 8   3/ 8
29.2N   88.2W              83     110/ 19/ 23 1021.2R   7/ 7
28.8N   86.0W                 85   90/ 21/ 25 1021.4F   7/ 7
PANAMA CITY BEAC           81 83  100/  9/ 16 1023.7
TOWER C                    80      80/ 21/ 23 1022.9F
28.5N   84.5W              81      70/ 17/ 21 1022.4R   6/ 6

$$
FLZ011-016>038-118-127-128-134-139-239-211700-
NORTH FLORIDA
  
CITY           SKY/WX    TMP DP  RH WIND       PRES   REMARKS
MARIANNA       FAIR      83  64  52 E10       30.23F                  
TALLAHASSEE    FAIR      85  65  51 E14       30.23F                  
PERRY          FAIR      85  63  47 E9G18     30.23F                  
LIVE OAK       MOSUNNY   84  64  51 NE14G21   30.23F                  
CROSS CITY       N/A     84  66  55 E10G18    30.21F                  
LAKE CITY      PTSUNNY   82  63  51 NE9G17    30.23F                  
GAINESVILLE    PTSUNNY   82  65  56 E12       30.24S                  
WILLISTON      PTSUNNY   83  67  59 NE9G17    30.20F                  
PALATKA        FAIR      82  63  51 E16       30.22S                  
MAYPORT NAS    CLOUDY    85  63  47 E13       30.24F                  
JACKSONVILLE   PTSUNNY   86  59  39 E16G25    30.24F                  
JAX NAS        PTSUNNY   84  64  50 E15G23    30.24S                  
JAX CECIL      MOSUNNY   86  64  48 E18       30.24S                  
FERNANDINA BEA FAIR      85  63  47 E15       30.25F                  
ST AUGUSTINE   CLOUDY    82  32  16 E18       30.24S                  
PALM COAST     SUNNY     84  63  48 E16G23    30.22S                  

STATION/POSITION SKY/WX   TEMP    WIND        PRES    WAVE   SWELL
                          AIR SEA DIR/SP/G            HT/PER HT/PER
                          (F)     (DEG/KT/KT) (MB)    (FT/S) (FT/S)
SHELL POINT      NOT AVBL
KEATON BEACH               81      70/ 13/ 18 1023.3F
CEDAR KEY                  79      70/ 12/ 14 1022.7F
FERNANDINA                 88 80   70/  4/ 10 1025.3
30.7N   81.3W                 81                N/A     5/15   2/15
MAYPORT                    82 81   70/ 11/ 17 1024.7
31.4N   80.9W              79 81   60/ 14/ 17 1024.9F   5/ 6   3/ 7
ST AUGUSTINE               80 80   80/ 15/ 18 1023.9F

$$
FLZ040-043>046-052-053-057-058-063-144-211700-
INTERIOR CENTRAL FLORIDA
  
CITY           SKY/WX    TMP DP  RH WIND       PRES   REMARKS
OCALA          PTSUNNY   84  65  52 E14G21    30.19F                  
LEESBURG       FAIR      86  65  49 E14G25    30.19F                  
SANFORD        FAIR      85  62  46 E16       30.19S                  
ORLANDO EXEC   PTSUNNY   84  63  49 E17G28    30.18F                  
ORLANDO INTL   PTSUNNY   85  65  51 E17G25    30.17F                  
KISSIMMEE      FAIR      85  67  54 E18       30.17F                  
WINTER HAVEN   FAIR      88  64  44 E15       30.17F                  
LAKELAND       MOSUNNY   84  63  48 E17G24    30.16F                  
BARTOW         MOSUNNY   86  64  48 E13G21    30.15                   
SEBRING        FAIR      85  69  58 E18G25    30.14F                  
OKEECHOBEE     PTSUNNY   84  70  61 E12G20    30.13S                  

$$
FLZ041-047-054-059-064-141-147-211700-
EAST CENTRAL FLORIDA
  
CITY           SKY/WX    TMP DP  RH WIND       PRES   REMARKS
ORMOND BEACH   CLOUDY    82  61  47 E17G23    30.21F                  
DAYTONA BEACH  PTSUNNY   83  64  52 NE21G26   30.20F                  
DELAND         CLOUDY    82  64  54 E16G29    30.20S                  
NEW SMYRNA BEA MOSUNNY   84  64  51 E17G25    30.22S                  
JFK SPACE CTR  SUNNY     84  68  58 E15G23    30.18F                  
TITUSVILLE     MOSUNNY   86  64  48 NE14      30.20S                  
CAPE CANAVERAL PTSUNNY   84  67  56 E15G23    30.17S                  
PATRICK AFB    FAIR      83  69  62 NE20G26   30.17S                  
MELBOURNE      PTSUNNY   86  68  54 E20G26    30.16F                  
VERO BEACH     FAIR      86  71  60 NE15G26   30.15F                  
FT PIERCE      FAIR      84  70  62 E17G24    30.14S                  
STUART         MOSUNNY   84  70  61 E18G29    30.15S                  

STATION/POSITION SKY/WX   TEMP    WIND        PRES    WAVE   SWELL
                          AIR SEA DIR/SP/G            HT/PER HT/PER
                          (F)     (DEG/KT/KT) (MB)    (FT/S) (FT/S)
28.5N   80.2W              80 83   60/ 17/ 23 1022.4S  10/16   8/16
28.9N   78.5W              79 80   60/ 19/ 23 1023.1S  10/13   8/13
TRIDENT PIER               83 82   50/ 13/ 18 1023.7
28.4N   80.5W                 81                N/A     5/ 8   2/14
27.5N   80.2W                 82                N/A     8/15   5/15

$$
FLZ050-056-061-142-242-148-248-149-249-151-251-155-255-
160-260-211700-
WEST CENTRAL FLORIDA
  
CITY           SKY/WX    TMP DP  RH WIND       PRES   REMARKS
CRYSTAL RIVER  FAIR      86  63  45 E14       30.17F                  
INVERNESS      CLOUDY    84  66  54 NE13G20   30.18F                  
BROOKSVILLE    FAIR      85  64  49 E16G23    30.17F                  
CLEARWATER AIR FAIR      82  64  54 E10       30.14F                  
ST PETE CLEARW FAIR      86  67  52 E13       30.14F                  
TAMPA INTL     FAIR      87  65  47 VRB6      30.15F                  
TAMPA EXEC     FAIR      86  66  51 E12G21    30.15F                  
PLANT CITY     FAIR      86  68  54 E10G18    30.17F                  
MACDILL AFB    FAIR      86  66  51 E16       30.14F                  
PETER O KNIGHT FAIR      88  66  48 E17       30.15S                  
ST PETERSBURG  FAIR      84  69  60 E17       30.13F                  
SARASOTA       FAIR      87  68  52 E17       30.10F                  
VENICE         FAIR      88  68  51 NE17G24   30.11F                  

STATION/POSITION SKY/WX   TEMP    WIND        PRES    WAVE   SWELL
                          AIR SEA DIR/SP/G            HT/PER HT/PER
                          (F)     (DEG/KT/KT) (MB)    (FT/S) (FT/S)
27.3N   84.2W                 84                N/A     7/ 6
CLEARWATER BEACH           82 83   80/ 10/ 18 1021.2
MIDDLE TAMPA BAY           81     100/ 19/ 22 1020.9
VENICE                     85 84   90/ 15/ 20 1019.6F

$$
FLZ066-069-070-075>078-162-262-165-265-211700-
SOUTHWEST FLORIDA AND KEYS
  
CITY           SKY/WX    TMP DP  RH WIND       PRES   REMARKS
PUNTA GORDA    FAIR      86  69  56 E17G25    30.12F                  
FT MYERS       PTSUNNY   87  70  56 E14G23    30.08F                  
SOUTHWEST INTL FAIR      87  70  56 NE20      30.09F                  
NAPLES         PTSUNNY   87  73  62 E17       30.07S                  
MARCO ISLAND   CLOUDY    85  72  65 NE17G24   30.08F                  
IMMOKALEE      CLOUDY    88  72  58 NE17G26   30.07F                  
MARATHON       FAIR      86  76  71 NE21G29   30.01F HX  96           
KEY WEST NAS   LGT RAIN  84  76  76 E16G22    30.03S                  
KEY WEST INTL  HVY RAIN  80  75  84 E15G31    30.04R VSB 1/4          

STATION/POSITION SKY/WX   TEMP    WIND        PRES    WAVE   SWELL
                          AIR SEA DIR/SP/G            HT/PER HT/PER
                          (F)     (DEG/KT/KT) (MB)    (FT/S) (FT/S)
NAPLES                     84 83   70/ 15/ 23 1018.6
26.0N   85.6W              84 85   80/ 21/ 27 1018.4F  10/ 8
DRY TORTUGAS               83      80/ 25/ 28 1017.2R
SAND KEY                   81      60/ 20/ 24 1015.5R
SOMBRERO KEY               83      60/ 22/ 26 1016.3
LONG KEY                   83                 1015.5

$$
FLZ067-068-071>074-168-172>174-211700-
SOUTHEAST FLORIDA 
  
CITY           SKY/WX    TMP DP  RH WIND       PRES   REMARKS
W PALM BEACH   PTSUNNY   84  70  62 NE16G26   30.11F                  
BOCA RATON     MOSUNNY   86  73  66 E21G29    30.09F                  
FT LAUDER-EXEC LGT RAIN  84  73  69 NE20G32   30.07F                  
FT LAUDERDALE  FAIR      84  74  71 NE22G32   30.06F                  
POMPANO BEACH  FAIR      86  73  65 NE20G28   30.08F                  
PEMBROKE PINES PTSUNNY   86  72  62 NE28G33   30.08F                  
OPA LOCKA      FAIR      87  75  67 NE21G28   30.07F HX  96           
MIAMI          PTSUNNY   87  72  60 NE18G24   30.06F                  
WEST KENDALL   PTSUNNY   86  76  71 NE20      30.04F HX  96           
HOMESTEAD      PTSUNNY   85  76  75 NE21      30.03F                  

STATION/POSITION SKY/WX   TEMP    WIND        PRES    WAVE   SWELL
                          AIR SEA DIR/SP/G            HT/PER HT/PER
                          (F)     (DEG/KT/KT) (MB)    (FT/S) (FT/S)
VIRGINIA KEY               83 83   30/ 16/ 24 1017.6
LAKE WORTH                 77 82   70/ 18/ 22 1021.1
FOW